TimeEST,TemperatureF,Dew PointF,Humidity,Sea Level PressureIn,VisibilityMPH,Wind Direction,Wind SpeedMPH,Gust SpeedMPH,PrecipitationIn,Events,Conditions,WindDirDegrees,DateUTC
12:53 AM,42.1,24.1,49,29.54,10.0,West,32.2,43.7,N/A,,Mostly Cloudy,260,2013-01-20 05:53:00
1:53 AM,37.9,15.1,39,29.56,10.0,West,35.7,52.9,N/A,,Clear,270,2013-01-20 06:53:00
2:53 AM,28.9,15.1,56,29.68,10.0,WNW,42.6,54.1,0.00,,Overcast,290,2013-01-20 07:53:00
3:53 AM,25.0,10.9,55,29.75,10.0,West,34.5,50.6,N/A,,Overcast,270,2013-01-20 08:53:00
4:53 AM,21.9,12.9,68,29.79,5.0,West,29.9,41.4,N/A,Snow,Light Snow,280,2013-01-20 09:53:00
5:09 AM,21.2,10.4,63,29.78,8.0,West,27.6,40.3,0.00,Snow,Light Snow,280,2013-01-20 10:09:00
5:53 AM,19.9,10.0,65,29.84,7.0,West,28.8,33.4,0.00,Snow,Light Snow,270,2013-01-20 10:53:00
6:33 AM,17.6,10.4,73,29.86,2.0,WNW,27.6,41.4,0.00,Snow,Light Snow,290,2013-01-20 11:33:00
6:36 AM,19.4,10.4,68,29.87,6.0,West,25.3,41.4,0.00,Snow,Light Snow,280,2013-01-20 11:36:00
6:53 AM,18.0,6.1,60,29.92,9.0,West,26.5,39.1,0.00,Snow,Light Snow,280,2013-01-20 11:53:00
7:53 AM,17.1,5.0,59,29.98,9.0,WNW,26.5,35.7,0.00,Snow,Light Snow,290,2013-01-20 12:53:00
8:53 AM,16.0,3.9,59,30.04,10.0,WNW,20.7,29.9,0.00,,Mostly Cloudy,290,2013-01-20 13:53:00
9:53 AM,17.1,3.0,54,30.08,10.0,West,24.2,34.5,N/A,,Scattered Clouds,280,2013-01-20 14:53:00
10:53 AM,19.0,3.9,52,30.10,10.0,WNW,17.3,27.6,N/A,,Mostly Cloudy,300,2013-01-20 15:53:00
11:53 AM,19.9,5.0,52,30.12,10.0,West,17.3,25.3,N/A,,Mostly Cloudy,280,2013-01-20 16:53:00
12:53 PM,19.0,6.1,57,30.12,10.0,West,19.6,26.5,N/A,,Overcast,280,2013-01-20 17:53:00
1:53 PM,19.9,6.1,55,30.10,10.0,West,15.0,21.9,N/A,,Overcast,280,2013-01-20 18:53:00
2:53 PM,19.9,3.9,50,30.13,10.0,West,16.1,24.2,N/A,,Overcast,270,2013-01-20 19:53:00
3:53 PM,19.9,3.9,50,30.14,10.0,West,19.6,26.5,N/A,,Overcast,280,2013-01-20 20:53:00
4:53 PM,19.0,3.9,52,30.15,10.0,West,17.3,24.2,N/A,,Mostly Cloudy,280,2013-01-20 21:53:00
5:53 PM,17.1,3.9,56,30.16,10.0,West,16.1,21.9,N/A,,Mostly Cloudy,280,2013-01-20 22:53:00
6:53 PM,17.1,3.0,54,30.17,10.0,West,18.4,25.3,N/A,,Mostly Cloudy,270,2013-01-20 23:53:00
7:53 PM,16.0,3.9,59,30.18,9.0,WNW,13.8,-,0.00,Snow,Light Snow,300,2013-01-21 00:53:00
8:53 PM,15.1,3.0,59,30.18,9.0,WNW,16.1,-,0.00,Snow,Light Snow,290,2013-01-21 01:53:00
9:53 PM,15.1,1.9,56,30.18,9.0,WNW,15.0,-,0.00,Snow,Light Snow,290,2013-01-21 02:53:00
10:53 PM,15.1,1.9,56,30.17,9.0,West,10.4,-,0.00,Snow,Light Snow,280,2013-01-21 03:53:00
11:53 PM,14.0,3.9,64,30.16,9.0,WNW,9.2,-,0.00,Snow,Light Snow,300,2013-01-21 04:53:00